Weather History for K79J - January, 2013

Change the Weather History Date:

Tuesday, January 1, 2013

  Actual Average (KCEW) Record (KCEW)
Temperature  
Mean Temperature 66 °F -  
Max Temperature 77 °F 60 °F 78 °F (1952)
Min Temperature 55 °F 40 °F 21 °F (1998)
Cooling Degree Days 1    
Growing Degree Days 16 (Base 50)    
Moisture  
Dew Point 58 °F    
Average Humidity 80    
Maximum Humidity 88    
Minimum Humidity 54    
Precipitation  
Precipitation 0.14 in - - ()
Sea Level Pressure  
Sea Level Pressure 30.00 in    
Wind  
Wind Speed 4 mph (SW)    
Max Wind Speed 14 mph    
Max Gust Speed 23 mph    
Visibility 6 miles    
Events Fog , Rain    
Averages and records for this station are not official NWS values.
T = Trace of Precipitation, MM = Missing Value Source: NWS Daily Summary

Daily Weather History Graph

Daily Weather History Graph

Search for Another Location

Airport or City:

Trip Planner

Search our weather history database for the weather conditions in past years. The results will help you decide how hot, cold, wet, or windy it might be!

Date:

Astronomy

Jan. 01, 2013 Rise Set
Actual Time 6:44 AM CST 4:54 PM CST
Civil Twilight 6:17 AM CST 5:20 PM CST
Nautical Twilight 5:47 AM CST 5:51 PM CST
Astronomical Twilight 5:18 AM CST 6:20 PM CST
Moon 9:06 PM CST (1/1) 9:12 AM CST (1/1)
Length of Visible Light 11h 02m
Length of Day
10h 09m
Waning Gibbous, 83% of the Moon is Illuminated
Jan 1
Waning Gibbous
Jan 4
Last Quarter
Jan 11
New
Jan 18
First Quarter
Jan 26
Full

Hourly Weather History & Observations

Time (CST) Temp. Dew Point Humidity Pressure Visibility Wind Dir Wind Speed Gust Speed Precip Events Conditions
12:56 AM 57.0 °F 48.9 °F 74% 30.11 in 9.0 mi South 4.6 mph - N/A   Mostly Cloudy
1:56 AM 57.0 °F 50.0 °F 77% 30.09 in 8.0 mi Calm Calm - N/A   Overcast
2:20 AM 55.4 °F 50.0 °F 82% 30.08 in 8.0 mi South 4.6 mph - N/A   Overcast
2:56 AM 57.0 °F 51.1 °F 81% 30.08 in 7.0 mi South 3.5 mph - N/A   Overcast
3:16 AM 55.4 °F 51.8 °F 88% 30.07 in 6.0 mi South 3.5 mph - N/A   Haze
3:23 AM 55.4 °F 51.8 °F 88% 30.07 in 6.0 mi Calm Calm - N/A   Haze
3:56 AM 55.9 °F 51.1 °F 84% 30.06 in 5.0 mi Calm Calm - N/A   Haze
4:36 AM 55.4 °F 51.8 °F 88% 30.05 in 4.0 mi Calm Calm - N/A   Haze
4:56 AM 55.9 °F 52.0 °F 87% 30.04 in 3.0 mi Calm Calm - N/A   Overcast
5:27 AM 55.4 °F 51.8 °F 88% 30.04 in 3.0 mi Calm Calm - N/A   Overcast
5:42 AM 57.2 °F 51.8 °F 82% 30.04 in 2.5 mi South 3.5 mph - N/A   Haze
5:56 AM 57.0 °F 53.1 °F 87% 30.04 in 1.5 mi South 3.5 mph - N/A   Overcast
6:05 AM 57.2 °F 53.6 °F 88% 30.04 in 1.2 mi South 3.5 mph - N/A   Overcast
6:13 AM 57.2 °F 53.6 °F 88% 30.04 in 1.0 mi South 3.5 mph - N/A   Overcast
6:24 AM 57.2 °F 53.6 °F 88% 30.04 in 0.8 mi South 3.5 mph - N/A   Overcast
6:56 AM 57.0 °F 53.1 °F 87% 30.04 in 0.5 mi South 3.5 mph - N/A Fog Fog
7:07 AM 57.2 °F 53.6 °F 88% 30.04 in 0.2 mi South 3.5 mph - N/A Fog Fog
7:56 AM 60.1 °F 55.9 °F 86% 30.04 in 0.2 mi Calm Calm - N/A Fog Fog
8:13 AM 60.8 °F 57.2 °F 88% 30.05 in 0.5 mi Calm Calm - N/A Fog Fog
8:23 AM 60.8 °F 57.2 °F 88% 30.05 in 1.2 mi Calm Calm - N/A   Overcast
8:27 AM 60.8 °F 57.2 °F 88% 30.04 in 2.0 mi SSE 3.5 mph - N/A   Overcast
8:35 AM 62.6 °F 57.2 °F 82% 30.05 in 4.0 mi Calm Calm - N/A   Mostly Cloudy
8:37 AM 62.6 °F 57.2 °F 82% 30.05 in 4.0 mi Calm Calm - N/A   Scattered Clouds
8:56 AM 66.0 °F 57.9 °F 75% 30.04 in 9.0 mi Variable 3.5 mph - N/A   Clear
9:56 AM 73.0 °F 57.9 °F 59% 30.04 in 10.0 mi SW 8.1 mph - N/A   Clear
10:56 AM 77.0 °F 59.0 °F 54% 30.01 in 10.0 mi SW 9.2 mph 23.0 mph N/A   Partly Cloudy
11:56 AM 75.9 °F 60.1 °F 58% 29.99 in 10.0 mi WSW 8.1 mph 18.4 mph N/A   Overcast
12:56 PM 75.9 °F 60.1 °F 58% 29.96 in 10.0 mi SW 9.2 mph - N/A   Mostly Cloudy
1:56 PM 75.0 °F 60.1 °F 60% 29.95 in 10.0 mi Variable 4.6 mph 19.6 mph N/A   Overcast
2:18 PM 75.2 °F 60.8 °F 61% 29.95 in 10.0 mi WSW 9.2 mph - N/A   Overcast
2:56 PM 73.9 °F 61.0 °F 64% 29.95 in 10.0 mi Variable 6.9 mph - N/A   Overcast
3:56 PM 72.0 °F 61.0 °F 68% 29.94 in 10.0 mi SW 4.6 mph - 0.00 in   Overcast
4:35 PM 69.8 °F 62.6 °F 78% 29.96 in 10.0 mi SW 4.6 mph - 0.00 in   Overcast
4:56 PM 70.0 °F 63.0 °F 78% 29.94 in 9.0 mi SSW 3.5 mph - 0.00 in   Overcast
5:56 PM 70.0 °F 63.0 °F 78% 29.94 in 10.0 mi SW 4.6 mph - N/A   Overcast
6:48 PM 69.8 °F 62.6 °F 78% 29.96 in 9.0 mi SW 4.6 mph - N/A   Overcast
6:56 PM 69.1 °F 64.0 °F 84% 29.96 in 9.0 mi Variable 3.5 mph - N/A   Overcast
7:05 PM 69.8 °F 64.4 °F 83% 29.96 in 9.0 mi SW 5.8 mph - N/A   Overcast
7:21 PM 69.8 °F 64.4 °F 83% 29.95 in 9.0 mi Variable 3.5 mph - N/A   Overcast
7:38 PM 69.8 °F 64.4 °F 83% 29.96 in 8.0 mi SW 5.8 mph - N/A   Overcast
7:56 PM 69.1 °F 64.0 °F 84% 29.95 in 8.0 mi Variable 3.5 mph - N/A   Overcast
8:04 PM 69.8 °F 64.4 °F 83% 29.96 in 7.0 mi SW 4.6 mph - N/A   Overcast
8:16 PM 69.8 °F 64.4 °F 83% 29.95 in 7.0 mi SW 5.8 mph - N/A   Overcast
8:56 PM 70.0 °F 64.0 °F 81% 29.95 in 7.0 mi WSW 8.1 mph - N/A   Overcast
9:56 PM 70.0 °F 64.9 °F 84% 29.95 in 2.5 mi WSW 5.8 mph - 0.00 in Rain Light Rain
10:02 PM 69.8 °F 64.4 °F 83% 29.97 in 1.5 mi NW 13.8 mph 18.4 mph 0.05 in Rain Rain
10:08 PM 68.0 °F 62.6 °F 83% 29.97 in 1.2 mi WNW 10.4 mph 18.4 mph 0.09 in Rain Heavy Rain
10:14 PM 68.0 °F 62.6 °F 83% 29.97 in 1.8 mi NNW 12.7 mph - 0.10 in Rain Rain
10:17 PM 68.0 °F 62.6 °F 83% 29.97 in 2.5 mi NNW 11.5 mph - 0.11 in Rain Rain
10:24 PM 66.2 °F 62.6 °F 88% 29.97 in 4.0 mi NNW 6.9 mph - 0.11 in Rain Light Rain
10:35 PM 66.2 °F 62.6 °F 88% 29.97 in 6.0 mi NW 8.1 mph - 0.12 in Rain Light Rain
10:42 PM 66.2 °F 62.6 °F 88% 29.98 in 4.0 mi NNW 12.7 mph - 0.13 in Rain Rain
10:56 PM 64.0 °F 59.0 °F 84% 29.97 in 6.0 mi North 10.4 mph - 0.14 in Rain Light Rain
11:56 PM 60.1 °F 55.0 °F 83% 29.98 in 10.0 mi North 9.2 mph - 0.00 in   Overcast